Погода в Семлячики

Погода в Семлячики : погода сейчас, прогноз погоды и архив. Всё, что Вы хотите узнать о погоде в Семлячики!

Хотите узнать прогноз погоды в Семлячики? Тогда Вам сюда: Погода в Семлячики

Поиск расширенной информации на нашем сайте:

Другие новости

Новости СМИ2

Главная страница сайта

Новости сайта

02.10.2013

Напоминаем, что на нашем новом сайте вы можете получить высокодетализированные прогнозы погоды по пунктам России, СНГ и мира (включающие важные для авиации метеовеличины, такие как направление и скорость ветра, видимость, явления погоды, количество и форма облачности, нижняя и верхняя граница облачности), а также ознакомиться с разнообразными материалами по авиационной метеорологии и подборкой полезных ссылок на эту тему.

Сайт Метеоцентр.Азия посвящён разработке технологий оптимизации авиаметеорологического обслуживания, включая проектирование и перспективное создание нескольких автоматизированных авиаметеорологических систем:
- система выпуска высокодетальных прогностических карт явлений погоды для нижнего воздушного пространства по России и ближнему зарубежью;
- система верификации прогнозов TAF (выпускаемых синоптиками официальных АМСГ РФ и ближнего зарубежья) и AUTOTAF (выпускаемых сайтом Метеоцентр.Азия) - выявление ошибок, онлайн-сопоставление с фактической погодой METAR, автоматическое внесение коррективов в прогнозы при резком отклонении фактической погоды от прогноза, подсчёт оправдываемости прогнозов по элементам и в целом;
- система обработки, анализа и отображения авиаметеорологической информации для применения провайдерами метеорологической информации.

Рекомендуем: Перевозка пассажиров пассажирские Перевозки.

Погода в Семлячики - сегодня

Время (UTC), дата Ветер
(°,м/с) 
Видим.   Явления Облачность Т
(°С)
Тd
(°С)
f(%) Тe
(°С)
Pmin
(гПа)
dP
(гПа)
Po
(мм)
O2
(г/м3)
Тmin Tmax R s Состояние
почвы
21 26.04.17 350 (С) 20000 м    10/10 600 м 
[Sc]
+0.5 -1.3 88 -1  1008.8  -0.5  754  303  +0.1         
00 27.04.17 090 (В) 20000 м    10/10 600 м 
[Sc]
+0.9 -1.8 82 -1  1008.8  754  303  -0         
03 27.04.17 060 (СВ) 20000 м    10/10 600 м 
[Sc]
+1.6 -1.6 79 -1  1007.8  -1  753  302           
06 27.04.17 050 (СВ) 20000 м    10/10 600 м 
[Sc]
+0.8 -0.7 90 -3  1006.7  -1.1  752  302           
09 27.04.17 080 (В) 6{12}  20000 м    10/10 600 м 
[Sc]
+0.8 -0.3 92 -3  1005.4  -1.3  752  302    +2.3       
12 27.04.17 050 (СВ) 11-13{13}  20000 м    10/10 600 м 
[Sc]
+0.8 +0.3 96 -4  1002.8  -2.6  750  301           
15 27.04.17 040 (СВ) 17-20{20}  2000 м  ливневой снег  10/10 300 м кучево-дожд. 
[Cb cap]
+0.1 +0 99 -6  996.9  -5.9  745  300           
18 27.04.17 030 (СВ) 21-28{28}  1000 м  ливневой снег  10/10 300 м кучево-дожд. 
[Cb cap]
-0.1 -0.1 100 -7  990.1  -6.7  740  298           
21 27.04.17 010 (С) 24-34{34}  0500 м  сильная метель{ливн. осадки}  ?/?  
-0.6 -0.6 100 -8  982.3  -7.8  734  297  -0.6    18  неравномерный
мокрый или
старый снег
100% 
00 28.04.17 020 (С) 26-31{34}  0500 м  сильная метель{ливн. осадки}  ?/?  
-0.3 -0.3 100 -8  976  -6.3  730  294  -0.7         
03 28.04.17 020 (С) 20-28{33}  0500 м  сильная метель  ?/?  
-0.2 -0.2 100 -7  972.2  -3.8  727  293           
06 28.04.17 010 (С) 15-20{28}  2000 м  ливневой снег  10/10 300 м кучево-дожд. 
[Cb cap]
+0.1 +0.1 100 -6  970.4  -1.8  725  292           
09 28.04.17 010 (С) 8-12{20}  4000 м  ливневой дождь  10/10 300 м кучево-дожд. 
[Cb cap]
+1.4 +1.2 99 -3  971.3  726  291    +1.4  27     
12 28.04.17 340 (С) 7-11{12}  4000 м  ливневой дождь  10/10 300 м кучево-дожд. 
[Cb cap]
+1.5 +0.9 96 -2  972.2  0.8  727  291           
15 28.04.17 320 (СЗ) 7-10{12}  10 км  слаб. ливневой дождь  10/10 300 м кучево-дожд. 
[Cb cap]
+1.8 -0.6 84 -2  972.7  0.6  727  291           
21 28.04.17 360 (С) 7-11{15}  20000 м    10/10 600 м 
+4.9 -3 57 +2  976.1  2.1  730  289  +0.7       
00 29.04.17 030 (СВ) 8-11{14}  20000 м    10/10 600 м 
[Sc]
+5.6 -2.2 57 +3  979.6  3.4  732  289           
03 29.04.17 120 (ЮВ) 2{12}  20000 м    10/10 600 м 
[Sc]
+4.4 +0.2 74 +4  984  4.4  736  292           
09 29.04.17 300 (СЗ) 20000 м    10/10 600 м 
[Sc]
+2.9 -0.6 78 +4  993.4  743  296    +6       
12 29.04.17 260 (З) 20000 м    10/10 600 м 
[Sc]
+1.1 -1.3 84 996.3  2.8  745  299           
15 29.04.17 360 (С) 20000 м    10/10 600 м 
[Sc]
+3.7 -2.4 64 +5  998.7  2.5  747  297           
18 29.04.17 320 (СЗ) 20000 м    6/0 средняя, верхняя 
[Ac trans|Ci fib]
+3.2 -3.2 63 1001  2.3  748  298           
21 29.04.17 320 (СЗ) 20000 м    ясно 
+5.4 -2.6 56 +4  1003.8  2.8  750  297  +0.3      мокрый или
старый снег
50-90% 
00 30.04.17 360 (С) 20000 м    3/0 верхняя 
[Ci fib]
+4.6 -0.3 70 +4  1005.8  752  298           
03 30.04.17 190 (Ю) 20000 м    ясно 
+4.7 +0 72 +4  1007.5  1.6  753  298           
Время (UTC), дата Ветер
(°,м/с) 
Видим.   Явления Облачность Т
(°С)
Тd
(°С)
f(%) Тe
(°С)
Pmin
(гПа)
dP
(гПа)
Po
(мм)
O2
(г/м3)
Тmin Tmax R s Состояние
почвы

Для получения пояснительной информации подведите курсор к названию столбца.

ПОГОДА в Семлячики - архив

Всё, что Вы хотите узнать о погоде в Семлячики - удобно и подробно!

Выберите нужную дату (начиная с 1 января 2015* года) и нажмите кнопку "Найти".
Будут отображены архивные сводки погоды по пункту Семлячики, начиная с указанной даты.


Отображать данные в формате CSV (для использования в таблицах Excel)


Внимание! Наш архив погоды предназначен исключительно для личного некоммерческого использования в познавательных целях. Если Вам необходимы официальные справки о состоянии погоды (для производственных, юридических, коммерческих и т.п. целей), обращайтесь в органы Росгидромета.

*Примечание: данная дата относится к архиву по метеостанциям СССР (Россия, СНГ, Балтия).
Архив по метеостанциям Зарубежной Европы и Азии (кроме Китая) хранится 10 дней, по другим регионам земного шара (Китай, Африка, Америка, Австралия, Океания) - 1 день.

Семлячики - район местоположения метеостанции


Название, широта, долгота, высота метеостанции:
Семлячики 54.1°ш. 160°д. 27 м над ур. моря [Российская Федерация]

Дополнительная информация

В oтличие oт бoльшинства пoгoдных сайтoв мы публикуем пoдрoбную метеoинфoрмацию в детальнoм прoфессиoнальнoм фoрмате.

Характеристики температуры и влажнoсти вoздуха измеряются на высoте 2 м в тени вдали oт зданий и деревьев.
Скoрoсть ветра измеряется на высoте 10 м (на урoвне рoста челoвека скoрoсть ветра ниже в 1.5-2 раза). Если метеoстанция нахoдится в гoрoде или в лесу, тo скoрoсть ветра занижена на 2-4 м/с пo сравнению с oткрытым местoм. Скoрoсть ветра над акватoриями крупных рек и oзёр, а также на вершинах хoлмoв на 2-5 м/с выше, чем в oбычных услoвиях.
Атмoсфернoе давление в разных тoчках местнoсти мoжет значительнo oтличаться oт давления на метеoстанции, в зависимoсти oт услoвий рельефа (при пoдъёме на 10 м давление пoнижается примернo на 1 мм рт.ст.).